When you browse on this site, cookies collect data to enhance your experience and personalize the content and advertising you see.
Visit our Privacy Policy to learn more. By continuing to use the site, you agree to this use of cookies and data.
  • In Romania
  • List of Countries
  • For 7 days
  • Water Temperature
  • Weather Map
  • Weather Widgets
  • user-avatar
    Login

    Hourly Weather Stavanger

    Today, 28 May, Thursday

    Time Temperature Precipitation Wind Pressure Humidity
    00:00 +6°C° 0 mm 4 mps 775 mmHg 94%
    01:00 +6°C° 0 mm 4 mps 775 mmHg 95%
    02:00 +5°C° 0 mm 4 mps 775 mmHg 95%
    03:00 +5°C° 0 mm 3 mps 774 mmHg 95%
    04:00 +7°C° 0 mm 3 mps 774 mmHg 90%
    05:00 +8°C° 0 mm 3 mps 774 mmHg 85%
    06:00 +9°C° 0 mm 3 mps 774 mmHg 80%
    07:00 +9°C° 0 mm 3 mps 774 mmHg 75%
    08:00 +10°C° 0 mm 3 mps 774 mmHg 70%
    09:00 +11°C° 0 mm 3 mps 774 mmHg 65%
    10:00 +12°C° 0 mm 4 mps 774 mmHg 62%
    11:00 +13°C° 0 mm 4 mps 774 mmHg 60%
    12:00 +13°C° 0 mm 4 mps 774 mmHg 57%
    13:00 +13°C° 0 mm 4 mps 774 mmHg 58%
    14:00 +13°C° 0 mm 4 mps 774 mmHg 59%
    15:00 +13°C° 0 mm 4 mps 773 mmHg 60%
    16:00 +13°C° 0 mm 4 mps 773 mmHg 62%
    17:00 +12°C° 0 mm 4 mps 773 mmHg 64%
    18:00 +12°C° 0 mm 4 mps 773 mmHg 66%
    19:00 +10°C° 0 mm 3 mps 773 mmHg 74%
    20:00 +9°C° 0 mm 3 mps 773 mmHg 82%
    21:00 +7°C° 0 mm 3 mps 773 mmHg 89%
    22:00 +7°C° 0 mm 3 mps 773 mmHg 89%
    23:00 +7°C° 0 mm 3 mps 773 mmHg 88%

    Tomorrow, 29 May, Friday

    Time Temperature Precipitation Wind Pressure Humidity
    00:00 +7°C° 0 mm 3 mps 773 mmHg 88%
    01:00 +7°C° 0 mm 3 mps 773 mmHg 86%
    02:00 +7°C° 0 mm 2 mps 772 mmHg 84%
    03:00 +7°C° 0 mm 2 mps 772 mmHg 83%
    04:00 +8°C° 0 mm 2 mps 772 mmHg 77%
    05:00 +10°C° 0 mm 2 mps 772 mmHg 72%
    06:00 +12°C° 0 mm 2 mps 772 mmHg 66%
    07:00 +14°C° 0 mm 2 mps 772 mmHg 61%
    08:00 +15°C° 0 mm 2 mps 772 mmHg 56%
    09:00 +17°C° 0 mm 2 mps 772 mmHg 51%
    10:00 +17°C° 0 mm 2 mps 772 mmHg 50%
    11:00 +18°C° 0 mm 3 mps 772 mmHg 49%
    12:00 +18°C° 0 mm 3 mps 772 mmHg 48%
    13:00 +18°C° 0 mm 3 mps 772 mmHg 49%
    14:00 +18°C° 0 mm 3 mps 772 mmHg 51%
    15:00 +18°C° 0 mm 3 mps 772 mmHg 53%
    16:00 +17°C° 0 mm 3 mps 771 mmHg 55%
    17:00 +17°C° 0 mm 3 mps 771 mmHg 58%
    18:00 +16°C° 0 mm 2 mps 771 mmHg 61%
    19:00 +15°C° 0 mm 2 mps 771 mmHg 65%
    20:00 +13°C° 0 mm 2 mps 771 mmHg 69%
    21:00 +12°C° 0 mm 1 mps 772 mmHg 74%
    22:00 +12°C° 0 mm 1 mps 772 mmHg 71%
    23:00 +12°C° 0 mm 1 mps 772 mmHg 68%

    Day after tomorrow, 30 May, Saturday

    Time Temperature Precipitation Wind Pressure Humidity
    00:00 +12°C° 0 mm 1 mps 772 mmHg 66%
    01:00 +12°C° 0 mm 1 mps 772 mmHg 66%
    02:00 +12°C° 0 mm 1 mps 772 mmHg 66%
    03:00 +13°C° 0 mm 2 mps 772 mmHg 66%
    04:00 +14°C° 0 mm 1 mps 772 mmHg 64%
    05:00 +15°C° 0 mm 1 mps 773 mmHg 62%
    06:00 +16°C° 0 mm 1 mps 773 mmHg 60%
    07:00 +19°C° 0 mm 1 mps 773 mmHg 54%
    08:00 +20°C° 0 mm 1 mps 773 mmHg 48%
    09:00 +22°C° 0 mm 1 mps 773 mmHg 42%
    10:00 +22°C° 0 mm 1 mps 773 mmHg 43%
    11:00 +21°C° 0 mm 2 mps 773 mmHg 44%
    12:00 +21°C° 0 mm 2 mps 773 mmHg 45%
    13:00 +21°C° 0 mm 2 mps 773 mmHg 46%
    14:00 +20°C° 0 mm 2 mps 772 mmHg 47%
    15:00 +20°C° 0 mm 2 mps 772 mmHg 48%
    16:00 +19°C° 0 mm 2 mps 772 mmHg 50%
    17:00 +18°C° 0 mm 2 mps 772 mmHg 53%
    18:00 +18°C° 0 mm 3 mps 772 mmHg 55%
    19:00 +16°C° 0 mm 2 mps 772 mmHg 59%
    20:00 +15°C° 0 mm 2 mps 772 mmHg 64%
    21:00 +14°C° 0 mm 2 mps 772 mmHg 68%
    22:00 +14°C° 0 mm 1 mps 772 mmHg 69%
    23:00 +14°C° 0 mm 1 mps 772 mmHg 69%

    31 May, Sunday

    Time Temperature Precipitation Wind Pressure Humidity
    00:00 +14°C° 0 mm 1 mps 772 mmHg 70%
    01:00 +14°C° 0 mm 1 mps 773 mmHg 69%
    02:00 +14°C° 0 mm 2 mps 773 mmHg 69%
    03:00 +14°C° 0 mm 2 mps 773 mmHg 68%
    04:00 +14°C° 0 mm 3 mps 773 mmHg 65%
    05:00 +16°C° 0 mm 3 mps 773 mmHg 62%
    06:00 +17°C° 0 mm 4 mps 773 mmHg 58%
    07:00 +18°C° 0 mm 3 mps 773 mmHg 55%
    08:00 +20°C° 0 mm 3 mps 773 mmHg 51%
    09:00 +21°C° 0 mm 2 mps 773 mmHg 48%
    10:00 +21°C° 0 mm 3 mps 773 mmHg 46%
    11:00 +22°C° 0 mm 3 mps 773 mmHg 44%
    12:00 +22°C° 0 mm 3 mps 773 mmHg 43%
    13:00 +22°C° 0 mm 3 mps 773 mmHg 45%
    14:00 +21°C° 0 mm 3 mps 772 mmHg 47%
    15:00 +20°C° 0 mm 3 mps 772 mmHg 49%
    16:00 +19°C° 0 mm 2 mps 772 mmHg 53%
    17:00 +18°C° 0 mm 2 mps 772 mmHg 57%
    18:00 +19°C° 0 mm 1 mps 772 mmHg 61%
    19:00 +16°C° 0 mm 1 mps 772 mmHg 65%
    20:00 +15°C° 0 mm 1 mps 772 mmHg 69%
    21:00 +14°C° 0 mm 1 mps 772 mmHg 73%
    22:00 +14°C° 0 mm 1 mps 772 mmHg 71%
    23:00 +14°C° 0 mm 1 mps 772 mmHg 69%

    1 June, Monday

    Time Temperature Precipitation Wind Pressure Humidity
    00:00 +14°C° 0 mm 2 mps 771 mmHg 67%
    01:00 +14°C° 0 mm 1 mps 771 mmHg 66%
    02:00 +14°C° 0 mm 1 mps 771 mmHg 65%
    03:00 +14°C° 0 mm 1 mps 771 mmHg 64%
    04:00 +15°C° 0 mm 1 mps 771 mmHg 62%
    05:00 +18°C° 0 mm 1 mps 770 mmHg 60%
    06:00 +19°C° 0 mm 1 mps 770 mmHg 58%
    07:00 +19°C° 0 mm 2 mps 770 mmHg 55%
    08:00 +20°C° 0 mm 2 mps 770 mmHg 52%
    09:00 +21°C° 0 mm 2 mps 770 mmHg 49%
    10:00 +21°C° 0 mm 2 mps 770 mmHg 48%
    11:00 +22°C° 0 mm 3 mps 770 mmHg 46%
    12:00 +22°C° 0 mm 3 mps 770 mmHg 45%
    13:00 +22°C° 0 mm 3 mps 770 mmHg 47%
    14:00 +21°C° 0 mm 3 mps 769 mmHg 49%
    15:00 +20°C° 0 mm 2 mps 769 mmHg 52%
    16:00 +19°C° 0 mm 2 mps 769 mmHg 55%
    17:00 +19°C° 0 mm 1 mps 769 mmHg 59%
    18:00 +18°C° 0 mm 1 mps 769 mmHg 62%
    19:00 +16°C° 0 mm 1 mps 769 mmHg 69%
    20:00 +14°C° 0 mm 1 mps 769 mmHg 75%
    21:00 +13°C° 0 mm 1 mps 768 mmHg 81%
    22:00 +13°C° 0 mm 1 mps 768 mmHg 79%
    23:00 +13°C° 0 mm 1 mps 768 mmHg 78%

    2 June, Tuesday

    Time Temperature Precipitation Wind Pressure Humidity
    00:00 +13°C° 0 mm 1 mps 768 mmHg 77%
    01:00 +12°C° 0 mm 1 mps 768 mmHg 74%
    02:00 +12°C° 0 mm 1 mps 768 mmHg 71%
    03:00 +12°C° 0 mm 2 mps 768 mmHg 68%
    04:00 +14°C° 0 mm 2 mps 768 mmHg 67%
    05:00 +15°C° 0 mm 1 mps 768 mmHg 65%
    06:00 +18°C° 0 mm 1 mps 767 mmHg 63%
    07:00 +19°C° 0 mm 1 mps 767 mmHg 61%
    08:00 +19°C° 0 mm 2 mps 767 mmHg 60%
    09:00 +20°C° 0 mm 2 mps 767 mmHg 58%
    10:00 +20°C° 0 mm 2 mps 767 mmHg 58%
    11:00 +20°C° 0 mm 2 mps 767 mmHg 58%
    12:00 +20°C° 0 mm 3 mps 767 mmHg 58%
    13:00 +20°C° 0 mm 2 mps 766 mmHg 61%
    14:00 +19°C° 0 mm 2 mps 766 mmHg 63%
    15:00 +19°C° 0 mm 2 mps 766 mmHg 65%
    16:00 +19°C° 0 mm 1 mps 766 mmHg 68%
    17:00 +18°C° 0 mm 1 mps 765 mmHg 71%
    18:00 +18°C° 0 mm 1 mps 765 mmHg 74%
    19:00 +16°C° 0 mm 1 mps 765 mmHg 80%
    20:00 +14°C° 0 mm 1 mps 765 mmHg 85%
    21:00 +13°C° 0 mm 1 mps 765 mmHg 91%
    22:00 +13°C° 0 mm 1 mps 765 mmHg 92%
    23:00 +12°C° 0 mm 2 mps 765 mmHg 93%
    Show more